Skip Page Navigation
NASA JPL Caltech
NASA Logo - Jet Propulsion Laboratory + View the NASA Portal
+ Center for Near-Earth Object Studies
JPL Home Earth Solar System Stars & Galaxies Technology
JPL Solar System Dynamics
BODIES ORBITS EPHEMERIDES TOOLS PHYSICAL DATA DISCOVERY FAQ SITE MAP
JPL Small-Body Database Browser
Search: [ help ]  
134813 (2000 FB3)
Classification: Inner Main-belt Asteroid          SPK-ID: 2134813
Ephemeris | Orbit Diagram | Orbital Elements | Mission Design | Physical Parameters | Discovery Circumstances ]

[ show orbit diagram ]
Orbital Elements at Epoch 2459000.5 (2020-May-31.0) TDB
Reference: JPL 9 (heliocentric ecliptic J2000)
 Element Value Uncertainty (1-sigma)   Units 
e .07027119772844696 4.244e-08  
a 1.95482620552472 8.5544e-09 au
q 1.817458226711543 8.3844e-08 au
i 23.57641805054947 8.711e-06 deg
node 135.3881741405683 1.2019e-05 deg
peri 90.2619495930829 6.3132e-05 deg
M 98.62815334271458 6.2368e-05 deg
tp 2458726.998913239059
(2019-Aug-31.49891324)
0.00017227 TDB
period 998.2990444098366
2.73
6.5529e-06
1.794e-08
d
yr
n .3606133873571128 2.3671e-09 deg/d
Q 2.092194184337898 9.1556e-09 au
  Orbit Determination Parameters
   # obs. used (total)      331  
   data-arc span      6944 days (19.01 yr)  
   first obs. used      2000-03-04  
   last obs. used      2019-03-09  
   planetary ephem.      DE431  
   SB-pert. ephem.      SB431-N16  
   condition code      0  
   norm. resid. RMS      .48767  
   source      ORB  
   producer      Otto Matic  
   solution date      2019-Jul-13 06:00:59  

Additional Information
 Earth MOID = .903115 au 
 Jupiter MOID = 3.02184 au 
 T_jup = 3.783 
[ show covariance matrix ]

Ephemeris | Orbit Diagram | Orbital Elements | Mission Design | Physical Parameters | Discovery Circumstances ]

Physical Parameter Table
Parameter Symbol Value Units Sigma Reference Notes
absolute magnitude H 16.8   n/a MPO417708  

134813 (2000 FB3)          Discovered 2000-Mar-27 by LINEAR at Socorro
Reference: 20060907/Numbers.arcLast Updated: 2006-09-10

Alternate Designations
 2000 FB3 = 2003 MP 
Ephemeris | Orbit Diagram | Orbital Elements | Mission Design | Physical Parameters | Discovery Circumstances ]
ABOUT SSD CREDITS/AWARDS PRIVACY/COPYRIGHT GLOSSARY LINKS
FirstGov 2020-Oct-26 17:35 UT
(server date/time)  
NASA Home Page
Site Manager:   Ryan S. Park
Webmaster  Alan B. Chamberlin